[[{"header":{"parameterUnit":"m.s-1","parameterCategory":1,"la1":30.2991,"la2":30.254,"lo1":-89.0895,"lo2":-89.0444,"dx":0.0017,"dy":0.0017,"nx":28,"ny":28,"refTime":"2023-01-07T03:00:00:Z","depth":0,"parameterNumber":2,"parameterNumberName":"U-component_of_WINDS"},"data":[0,0,0,0,0,0,0,0,0,0,0,0,0,0,0,0,0,0,0,0,0,0,0,0,0,0,0,0,0,0,0,0,0,0,0,0,0,0,0,0,0,0,0,0,0,0,0,0,0,0,0,0,0,0,0,0,0,0,0.5858,0.5859,0,0.5988,0.5989,0.599,0.602,0.6019,0.6018,0.6017,0.6154,0.6159,0.6163,0,0,0,0,0,0,0,0,0,0,0,0,0,0.5641,0.5645,0.5858,0.5859,0.5861,0.5987,0.5989,0.5991,0.602,0.6019,0.6018,0.6017,0.6153,0.6158,0.6164,0,0,0,0,0,0,0,0,0,0,0,0,0,0.575,0.5646,0.5858,0.5891,0.5895,0.5987,0.5989,0.5991,0.602,0.6019,0.6017,0.6016,0.6151,0.6158,0.6164,0.6234,0,0,0.6185,0.6188,0,0,0,0,0,0,0,0,0.5744,0.5758,0.5884,0.5889,0.5894,0.5986,0.5963,0.6073,0.6021,0.5973,0.6017,0.6016,0.61,0.6111,0.6138,0.624,0.6246,0.6186,0.619,0.6193,0.6195,0,0,0,0,0,0,0,0.5736,0.5752,0.5909,0.5886,0.5892,0.5901,0.5915,0.5984,0.6043,0.5977,0.5979,0.5994,0.6102,0.6132,0.6142,0.6248,0.6186,0.6192,0.6196,0.6198,0.6417,0.6419,0,0,0,0,0,0,0.5722,0.5746,0.5905,0.5913,0.5813,0.5906,0.5922,0.5958,0.6042,0.6053,0.5995,0.5995,0.6121,0.6134,0.6147,0.6235,0.6193,0.6199,0.6203,0.6415,0.6417,0.6419,0,0,0,0,0,0,0.5717,0.5736,0.59,0.583,0.5852,0.5911,0.5952,0.5961,0.5991,0.6056,0.6067,0.6014,0.612,0.6137,0.6212,0.624,0.6202,0.6208,0.6413,0.6416,0.6418,0.6411,0,0,0,0,0,0,0.5711,0.5734,0.5759,0.5831,0.5855,0.5962,0.5953,0.5965,0.6002,0.6003,0.6076,0.6087,0.612,0.6202,0.6219,0.6249,0.6214,0.6411,0.6414,0.6417,0.6409,0.6413,0.6417,0,0,0,0,0,0.5703,0.5753,0.576,0.578,0.5888,0.5963,0.5977,0.6013,0.6004,0.6031,0.6073,0.6085,0.6234,0.6209,0.6229,0.6261,0.6409,0.6413,0.6417,0.6408,0.6413,0.6417,0,0,0,0,0,0,0.5684,0.5763,0.5772,0.5846,0.5897,0.5968,0.6003,0.6017,0.6073,0.6072,0.6116,0.6132,0.6205,0.6241,0.6212,0.6334,0.6322,0.633,0.6308,0.6313,0.6317,0.6307,0.6219,0,0,0,0,0,0.5688,0.5741,0.5807,0.5866,0.5892,0.5943,0.5977,0.6,0.6056,0.6078,0.6126,0.6181,0.6241,0.6279,0.6337,0.6415,0.6433,0.6447,0.6451,0.6453,0.646,0.6506,0.6514,0.6432,0.6432,0.6432,0,0,0.5698,0.5748,0.5778,0.5864,0.5906,0.5962,0.5961,0.6019,0.6062,0.6087,0.6161,0.6198,0.6263,0.634,0.6377,0.6372,0.6487,0.6458,0.646,0.6465,0.6511,0.6519,0.6525,0.6435,0.6434,0.6434,0,0,0.5744,0.5786,0.584,0.5883,0.5948,0.5982,0.5995,0.6064,0.6089,0.6164,0.6185,0.6237,0.6338,0.6384,0.6421,0.6487,0.65,0.6505,0.6524,0.6569,0.6575,0.6581,0.6606,0.6614,0.6511,0.6511,0.6511,0,0.5748,0.5831,0.5867,0.5925,0.5963,0.5988,0.6045,0.6086,0.6166,0.6193,0.6187,0.6316,0.6361,0.645,0.6466,0.6495,0.6513,0.6496,0.6571,0.6577,0.6584,0.6608,0.6617,0.6511,0.6511,0.6511,0.6511,0,0.5834,0.5891,0.5928,0.6004,0.6047,0.6104,0.6151,0.619,0.621,0.6245,0.6322,0.6378,0.6449,0.6472,0.6492,0.6565,0.656,0.6562,0.655,0.6591,0.6615,0.6624,0.6511,0.6511,0.6511,0.6511,0,0,0.587,0.5967,0.598,0.6016,0.609,0.6136,0.6196,0.6264,0.6298,0.6353,0.6406,0.6492,0.6494,0.6536,0.6562,0.6601,0.6652,0.6598,0.6601,0.6607,0.6738,0.6736,0.6746,0.6661,0.6663,0.6665,0.6733,0,0.5926,0.6031,0.6067,0.6155,0.621,0.6236,0.6288,0.634,0.6376,0.6429,0.6469,0.653,0.6528,0.6553,0.6593,0.6637,0.6679,0.6632,0.6712,0.6715,0.6696,0.6759,0.6757,0.6818,0.6742,0.6744,0.6745,0,0.6005,0.6061,0.6154,0.6223,0.6248,0.6294,0.6361,0.641,0.6472,0.6495,0.6542,0.6566,0.6631,0.6616,0.6708,0.6676,0.6712,0.6739,0.6742,0.6751,0.6732,0.6771,0.6838,0.6848,0.676,0.6758,0.6757,0,0.6024,0.6123,0.6192,0.6222,0.6304,0.6336,0.6372,0.6432,0.6471,0.653,0.6557,0.6623,0.666,0.6712,0.6754,0.6738,0.6843,0.6831,0.6866,0.6865,0.6887,0.6885,0.6962,0.6908,0.6908,0.6908,0.6908,0,0.6083,0.6139,0.6202,0.6244,0.6309,0.6351,0.6414,0.6452,0.6505,0.6558,0.6585,0.6633,0.6686,0.6742,0.6775,0.6848,0.6864,0.6886,0.6895,0.6884,0.6882,0.6908,0.6905,0.691,0.691,0.6909,0.6909,0,0.6114,0.6158,0.6236,0.6307,0.6327,0.6372,0.6434,0.6478,0.6515,0.6581,0.6599,0.6657,0.6725,0.6772,0.686,0.6882,0.6961,0.6969,0.694,0.6945,0.6978,0.6974,0.7075,0.7092,0.7025,0.7026,0.7027,0,0.6149,0.6193,0.627,0.6306,0.6342,0.64,0.6441,0.6484,0.6526,0.66,0.6635,0.6705,0.6762,0.687,0.6922,0.699,0.7,0.7031,0.701,0.6999,0.7002,0.6999,0.7004,0.7034,0.7034,0.7035,0.7035,0,0.6207,0.6227,0.6283,0.6348,0.6396,0.645,0.6504,0.6532,0.6586,0.6632,0.6701,0.6746,0.6835,0.6905,0.6978,0.7017,0.7036,0.7041,0.7053,0.7043,0.7025,0.7037,0.695,0.7038,0.7038,0.7038,0.7038,0.7037,0.6242,0.6283,0.6344,0.6407,0.6452,0.6502,0.6547,0.659,0.6648,0.6724,0.6746,0.6819,0.6882,0.6982,0.7022,0.7081,0.7079,0.7096,0.7101,0.7104,0.7105,0.7015,0.7095,0.7095,0.7095,0.7095,0.7095,0,0.6302,0.6343,0.64,0.6475,0.6525,0.6537,0.6598,0.664,0.6703,0.6759,0.6816,0.6897,0.6965,0.7023,0.7094,0.713,0.7141,0.7148,0.7146,0.7155,0.7102,0.7085,0.7138,0.7138,0.7138,0.7138,0.7138,0.7138,0.6339,0.641,0.6437,0.6532,0.6573,0.6643,0.6677,0.6725,0.677,0.6859,0.6916,0.6952,0.701,0.7086,0.715,0.7166,0.7191,0.7196,0.7214,0.7163,0.7158,0.7154,0.7138,0.7201,0.7201,0.7262,0.7263,0.7263]},{"header":{"parameterUnit":"m.s-1","parameterCategory":1,"la1":30.2991,"la2":30.254,"lo1":-89.0895,"lo2":-89.0444,"dx":0.0017,"dy":0.0017,"nx":28,"ny":28,"refTime":"2023-01-07T03:00:00:Z","depth":0,"parameterNumber":3,"parameterNumberName":"V-component_of_WINDS"},"data":[0,0,0,0,0,0,0,0,0,0,0,0,0,0,0,0,0,0,0,0,0,0,0,0,0,0,0,0,0,0,0,0,0,0,0,0,0,0,0,0,0,0,0,0,0,0,0,0,0,0,0,0,0,0,0,0,0,0,1.6219,1.6221,0,1.6423,1.6425,1.6427,1.6477,1.6476,1.6474,1.6473,1.6692,1.6699,1.6706,0,0,0,0,0,0,0,0,0,0,0,0,0,1.5881,1.5887,1.6218,1.6221,1.6223,1.6422,1.6425,1.6428,1.6477,1.6475,1.6474,1.6472,1.6689,1.6698,1.6706,0,0,0,0,0,0,0,0,0,0,0,0,0,1.6051,1.5889,1.6218,1.6272,1.6279,1.6422,1.6425,1.6429,1.6478,1.6475,1.6473,1.6471,1.6687,1.6697,1.6708,1.6815,0,0,1.674,1.6745,0,0,0,0,0,0,0,0,1.6041,1.6063,1.6261,1.6268,1.6276,1.6422,1.6386,1.6558,1.6478,1.6402,1.6473,1.647,1.6604,1.6622,1.6665,1.6825,1.6834,1.6741,1.6748,1.6752,1.6755,0,0,0,0,0,0,0,1.6029,1.6055,1.63,1.6264,1.6273,1.6289,1.6311,1.6419,1.6513,1.6409,1.6413,1.6436,1.6608,1.6654,1.667,1.6837,1.6741,1.675,1.6757,1.6761,1.7097,1.71,0,0,0,0,0,0,1.6007,1.6045,1.6293,1.6306,1.6151,1.6297,1.6321,1.6377,1.6512,1.653,1.6437,1.6437,1.6637,1.6658,1.6678,1.6813,1.6752,1.6762,1.6768,1.7095,1.7098,1.7101,0,0,0,0,0,0,1.5999,1.6028,1.6285,1.6176,1.621,1.6305,1.6368,1.6383,1.6429,1.6533,1.6551,1.6467,1.6636,1.6663,1.678,1.6822,1.6767,1.6777,1.7092,1.7096,1.7099,1.7083,0,0,0,0,0,0,1.5989,1.6025,1.6065,1.6177,1.6216,1.638,1.637,1.6388,1.6446,1.6448,1.6565,1.6583,1.6637,1.6764,1.679,1.6835,1.6785,1.7089,1.7094,1.7098,1.7081,1.7086,1.7091,0,0,0,0,0,1.5977,1.6054,1.6066,1.6096,1.6266,1.6382,1.6405,1.6462,1.6449,1.6491,1.6558,1.6579,1.6812,1.6775,1.6806,1.6854,1.7086,1.7092,1.7098,1.7078,1.7085,1.7091,0,0,0,0,0,0,1.5948,1.607,1.6085,1.6199,1.628,1.639,1.6445,1.6468,1.6556,1.6555,1.6625,1.6651,1.6764,1.6821,1.6778,1.6966,1.695,1.6962,1.6924,1.6932,1.6936,1.6921,1.6794,0,0,0,0,0,1.5954,1.6035,1.6138,1.623,1.6269,1.635,1.6403,1.644,1.6527,1.6562,1.6638,1.6725,1.6818,1.6878,1.6969,1.7089,1.7117,1.7138,1.7143,1.7146,1.7156,1.7226,1.7237,1.712,1.712,1.7119,0,0,1.597,1.6046,1.6093,1.6226,1.6292,1.6378,1.6378,1.6469,1.6534,1.6577,1.6691,1.675,1.6852,1.697,1.7027,1.7022,1.7195,1.7154,1.7156,1.7164,1.7233,1.7244,1.7253,1.7123,1.7123,1.7122,0,0,1.604,1.6105,1.6189,1.6255,1.6354,1.6408,1.6428,1.6535,1.6575,1.6689,1.6724,1.6804,1.6962,1.7034,1.7091,1.7188,1.7212,1.7217,1.7244,1.731,1.732,1.7328,1.7365,1.7377,1.7226,1.7226,1.7226,0,1.6048,1.6174,1.623,1.6318,1.6376,1.6416,1.6503,1.6566,1.6692,1.6733,1.6724,1.6923,1.6995,1.7131,1.7155,1.7199,1.7227,1.7204,1.7313,1.7322,1.7331,1.7367,1.738,1.7226,1.7226,1.7226,1.7226,0,1.6179,1.6266,1.6322,1.6439,1.6504,1.6591,1.6663,1.6722,1.6754,1.6809,1.6927,1.7013,1.7123,1.7158,1.7191,1.73,1.7294,1.7298,1.7284,1.7341,1.7376,1.739,1.7226,1.7226,1.7226,1.7226,0,0,1.6238,1.6383,1.6403,1.6456,1.6569,1.664,1.673,1.6834,1.6885,1.697,1.7049,1.7182,1.7187,1.7251,1.7293,1.7351,1.7425,1.7349,1.7353,1.7361,1.7552,1.7549,1.7563,1.744,1.7443,1.7445,1.7544,0,1.6324,1.6482,1.6535,1.6668,1.6751,1.679,1.6869,1.6949,1.7002,1.7083,1.7145,1.7238,1.7236,1.7275,1.7334,1.7403,1.7464,1.7396,1.7518,1.7521,1.7492,1.7581,1.7578,1.7667,1.7558,1.756,1.7562,0,1.6445,1.6529,1.6669,1.6771,1.6808,1.6877,1.6978,1.7053,1.7145,1.7181,1.7252,1.7289,1.7388,1.7366,1.7505,1.7458,1.7511,1.7552,1.7557,1.7572,1.7546,1.76,1.7697,1.771,1.7584,1.7582,1.758,0,1.6475,1.6624,1.6727,1.6771,1.6893,1.6942,1.6995,1.7085,1.7144,1.7233,1.7273,1.7373,1.7428,1.7507,1.7571,1.7549,1.7705,1.7688,1.7739,1.7738,1.7772,1.7769,1.7879,1.7803,1.7803,1.7803,1.7803,0,1.6566,1.6651,1.6742,1.6805,1.6902,1.6964,1.7059,1.7116,1.7195,1.7273,1.7314,1.7387,1.7466,1.7551,1.7602,1.771,1.7735,1.7768,1.7781,1.7765,1.7761,1.7802,1.7798,1.7807,1.7806,1.7805,1.7804,0,1.6617,1.6681,1.6796,1.6901,1.693,1.6996,1.7088,1.7154,1.7208,1.7306,1.7333,1.7421,1.7522,1.7593,1.7725,1.7759,1.7877,1.7888,1.7844,1.7851,1.7899,1.7894,1.8041,1.8064,1.797,1.7971,1.7972,0,1.6671,1.6736,1.6848,1.6901,1.6954,1.7039,1.7099,1.7163,1.7225,1.7334,1.7387,1.749,1.7576,1.7736,1.7814,1.7915,1.7931,1.7975,1.7947,1.7929,1.7933,1.7929,1.7937,1.798,1.7981,1.7981,1.7982,0,1.6761,1.6789,1.6872,1.6966,1.7036,1.7114,1.7194,1.7236,1.7314,1.7382,1.7484,1.755,1.7683,1.7786,1.7894,1.7953,1.7982,1.799,1.8007,1.7992,1.7965,1.7982,1.7857,1.7987,1.7986,1.7986,1.7985,1.7985,1.6816,1.6877,1.6964,1.7056,1.7121,1.7194,1.726,1.7322,1.7407,1.7518,1.7551,1.7658,1.775,1.7898,1.7958,1.8045,1.8043,1.8068,1.8074,1.808,1.808,1.7949,1.8065,1.8065,1.8065,1.8065,1.8065,0,1.6909,1.6967,1.705,1.7158,1.7231,1.7247,1.7336,1.7397,1.7489,1.757,1.7653,1.7772,1.7872,1.7957,1.8061,1.8114,1.813,1.814,1.8137,1.8151,1.8076,1.805,1.8125,1.8125,1.8125,1.8125,1.8125,1.8125,1.6966,1.7069,1.7108,1.7245,1.7303,1.7405,1.7455,1.7523,1.7589,1.7718,1.78,1.7853,1.7937,1.8048,1.8142,1.8165,1.8202,1.8209,1.8235,1.8163,1.8156,1.815,1.8126,1.8216,1.8216,1.8303,1.8304,1.8305]}]]